Date String (YYYY-MM-DD hh:mm:ss) UTC,Instrument flags,absolute air pressure of the measurement (hPa),sample flow rate (lpm),inlet stack bypass flow (lpm),air temperature of the measurement (°C),ambient temperature measured by the external sensor (°C),aerosol sample conditioner tube jacket temperature (°C),OPC LED temperature (°C),internal box temperature (°C),relative humidity of the measurement (%),span deviation,mass concentration of particles derived from Lorenz-Mie calculation of OPC scattering (μg/m³),mass concentration of particles derived from Lorenz-Mie calculation of OPC scattering (μg/m³),mass concentration of particles derived from Lorenz-Mie calculation of OPC scattering (μg/m³)
DateTimeUTC,F1_M11,P_M11,Q1_M11,Q2_M11,T1_M11,T2_M11,T3_M11,T4_M11,T5_M11,U1_M11,ZSPAN_M11,X0_M11,X2_M11,X1_M11
2024-06-14 08:00:00,SystemResetWarning,0835.0,5.00,000.00,030.2,029.8,000.0,038.3,032.0,032.2,0000.0,0034.49,0008.39,0005.12
2024-06-14 08:01:00,SystemResetWarning,0834.9,5.01,000.00,030.3,029.9,000.0,038.3,032.1,032.1,0000.0,0034.98,0008.41,0005.12
2024-06-14 08:02:00,SystemResetWarning,0835.1,5.00,000.00,030.3,029.7,000.0,038.4,032.0,032.1,0000.0,0034.65,0008.32,0005.11
2024-06-14 08:03:00,SystemResetWarning,0834.5,5.00,000.00,030.1,027.6,000.0,038.4,031.0,032.5,0000.0,0034.61,0008.22,0005.10
2024-06-14 08:04:00,SystemResetWarning,0834.4,5.01,000.00,029.7,026.3,000.0,038.5,030.4,033.3,0000.0,0034.10,0008.10,0005.08
2024-06-14 08:05:00,SystemResetWarning,0834.4,5.01,000.00,029.5,026.5,000.0,038.4,030.4,033.7,0000.0,0034.01,0008.11,0005.07
2024-06-14 08:06:00,SystemResetWarning,0834.3,4.99,000.00,029.5,026.9,000.0,038.2,030.6,033.9,0000.0,0032.62,0008.15,0005.05
2024-06-14 08:07:00,SystemResetWarning,0834.4,5.00,000.00,029.5,027.4,000.0,038.1,030.9,033.9,0000.0,0030.42,0008.15,0005.05
2024-06-14 08:08:00,SystemResetWarning,0834.4,5.00,000.00,029.5,027.8,000.0,038.1,031.0,033.8,0000.0,0029.52,0008.06,0005.05
2024-06-14 08:09:00,SystemResetWarning,0834.4,5.01,000.00,029.5,028.1,000.0,038.1,031.2,033.7,0000.0,0031.68,0007.96,0005.04
2024-06-14 08:10:00,SystemResetWarning,0834.4,4.99,000.00,029.6,028.4,000.0,038.0,031.3,033.7,0000.0,0031.51,0007.95,0005.02
2024-06-14 08:11:00,SystemResetWarning,0834.3,4.99,000.00,029.6,028.6,000.0,038.0,031.4,033.7,0000.0,0033.06,0008.02,0005.01
2024-06-14 08:12:00,SystemResetWarning,0834.3,4.99,000.00,029.7,028.8,000.0,038.0,031.4,033.6,0000.0,0032.90,0008.07,0005.01
2024-06-14 08:13:00,SystemResetWarning,0834.4,5.00,000.00,029.7,028.9,000.0,038.0,031.5,033.5,0000.0,0032.98,0008.17,0005.02
2024-06-14 08:14:00,SystemResetWarning,0834.5,5.01,000.00,029.8,029.1,000.0,038.1,031.5,033.4,0000.0,0034.04,0008.23,0005.03
2024-06-14 08:15:00,SystemResetWarning,0834.3,5.01,000.00,029.8,029.2,000.0,038.1,031.6,033.3,0000.0,0034.50,0008.26,0005.04
2024-06-14 08:16:00,SystemResetWarning,0834.4,5.00,000.00,029.9,029.3,000.0,038.1,031.7,033.2,0000.0,0034.60,0008.26,0005.05
2024-06-14 08:17:00,SystemResetWarning,0834.4,5.00,000.00,029.9,029.4,000.0,038.1,031.8,033.1,0000.0,0036.72,0008.29,0005.05
2024-06-14 08:18:00,SystemResetWarning,0834.4,4.99,000.00,030.0,029.5,000.0,038.1,031.8,033.0,0000.0,0037.58,0008.31,0005.05
2024-06-14 08:19:00,SystemResetWarning,0834.4,5.00,000.00,030.0,029.6,000.0,038.2,031.9,033.0,0000.0,0037.25,0008.36,0005.06
2024-06-14 08:20:00,SystemResetWarning,0834.4,5.00,000.00,030.1,029.6,000.0,038.2,031.9,032.8,0000.0,0034.74,0008.41,0005.07
2024-06-14 08:21:00,SystemResetWarning,0834.5,5.00,000.00,030.2,029.7,000.0,038.2,032.0,032.7,0000.0,0033.34,0008.36,0005.06
2024-06-14 08:22:00,SystemResetWarning,0834.5,5.01,000.00,030.2,029.8,000.0,038.3,032.0,032.6,0000.0,0031.46,0008.31,0005.07
2024-06-14 08:23:00,SystemResetWarning,0834.5,5.01,000.00,030.2,029.8,000.0,038.3,032.0,032.5,0000.0,0030.44,0008.30,0005.08
2024-06-14 08:24:00,SystemResetWarning,0834.4,4.99,000.00,030.2,028.6,000.0,038.4,031.4,032.6,0000.0,0030.07,0008.18,0005.06
2024-06-14 08:25:00,SystemResetWarning,0834.4,5.00,000.00,029.8,026.7,000.0,038.4,030.6,033.4,0000.0,0029.63,0008.13,0005.06
2024-06-14 08:26:00,SystemResetWarning,0834.6,5.02,000.00,029.5,026.5,000.0,038.4,030.4,033.9,0000.0,0029.46,0008.12,0005.07
2024-06-14 08:27:00,SystemResetWarning,0834.4,4.99,000.00,029.4,026.9,000.0,038.3,030.5,034.2,0000.0,0030.04,0008.15,0005.06
2024-06-14 08:28:00,SystemResetWarning,0834.3,5.01,000.00,029.4,027.3,000.0,038.2,030.8,034.2,0000.0,0028.06,0008.14,0005.07
2024-06-14 08:29:00,SystemResetWarning,0834.4,5.01,000.00,029.4,027.7,000.0,038.1,030.9,034.1,0000.0,0028.35,0008.17,0005.08
2024-06-14 08:30:00,SystemResetWarning,0834.7,5.00,000.00,029.5,028.0,000.0,038.1,031.1,034.0,0000.0,0028.95,0008.22,0005.08
2024-06-14 08:31:00,SystemResetWarning,0834.5,5.00,000.00,029.5,028.3,000.0,038.0,031.2,033.9,0000.0,0030.19,0008.26,0005.10
2024-06-14 08:32:00,SystemResetWarning,0834.6,5.00,000.00,029.6,028.5,000.0,038.0,031.3,033.8,0000.0,0030.52,0008.34,0005.09
2024-06-14 08:33:00,SystemResetWarning,0834.6,5.01,000.00,029.6,028.7,000.0,038.0,031.4,033.8,0000.0,0030.69,0008.34,0005.09
2024-06-14 08:34:00,SystemResetWarning,0834.4,4.99,000.00,029.7,028.9,000.0,038.0,031.5,033.6,0000.0,0032.68,0008.30,0005.07
2024-06-14 08:35:00,SystemResetWarning,0834.5,4.99,000.00,029.8,029.0,000.0,038.0,031.5,033.5,0000.0,0033.64,0008.35,0005.08
2024-06-14 08:36:00,SystemResetWarning,0834.4,5.00,000.00,029.8,029.2,000.0,038.0,031.6,033.4,0000.0,0033.15,0008.37,0005.06
2024-06-14 08:37:00,SystemResetWarning,0834.5,5.00,000.00,029.9,029.3,000.0,038.1,031.7,033.4,0000.0,0031.58,0008.47,0005.07
2024-06-14 08:38:00,SystemResetWarning,0834.4,5.01,000.00,029.9,029.4,000.0,038.1,031.7,033.2,0000.0,0030.48,0008.48,0005.07
2024-06-14 08:39:00,SystemResetWarning,0834.2,5.00,000.00,030.0,029.5,000.0,038.1,031.8,033.1,0000.0,0031.02,0008.35,0005.06
2024-06-14 08:40:00,SystemResetWarning,0834.2,4.99,000.00,030.0,029.5,000.0,038.1,031.8,033.0,0000.0,0031.30,0008.32,0005.06
2024-06-14 08:41:00,SystemResetWarning,0834.3,4.99,000.00,030.1,029.6,000.0,038.2,031.9,032.9,0000.0,0032.48,0008.31,0005.05
2024-06-14 08:42:00,SystemResetWarning,0834.3,5.01,000.00,030.1,029.7,000.0,038.2,031.9,032.8,0000.0,0033.06,0008.19,0005.03
2024-06-14 08:43:00,SystemResetWarning,0834.3,5.00,000.00,030.2,029.7,000.0,038.3,032.0,032.8,0000.0,0033.10,0008.07,0005.03
2024-06-14 08:44:00,SystemResetWarning,0834.3,4.99,000.00,030.2,029.8,000.0,038.3,032.0,032.7,0000.0,0034.40,0008.07,0005.03
2024-06-14 08:45:00,SystemResetWarning,0834.2,4.99,000.00,030.3,029.8,000.0,038.3,032.0,032.6,0000.0,0033.48,0008.10,0005.05
2024-06-14 08:46:00,SystemResetWarning,0834.1,4.99,000.00,030.1,028.1,000.0,038.4,031.3,032.8,0000.0,0034.11,0008.07,0005.05
2024-06-14 08:47:00,SystemResetWarning,0834.1,5.01,000.00,029.7,026.5,000.0,038.4,030.5,033.6,0000.0,0035.46,0008.04,0005.07
2024-06-14 08:48:00,SystemResetWarning,0834.1,5.01,000.00,029.5,026.5,000.0,038.4,030.4,034.1,0000.0,0036.23,0008.06,0005.07
2024-06-14 08:49:00,SystemResetWarning,0834.1,5.00,000.00,029.4,026.9,000.0,038.2,030.5,034.2,0000.0,0036.04,0008.00,0005.07
2024-06-14 08:50:00,SystemResetWarning,0834.1,5.00,000.00,029.4,027.3,000.0,038.1,030.8,034.3,0000.0,0035.47,0008.01,0005.08
2024-06-14 08:51:00,SystemResetWarning,0834.1,5.00,000.00,029.5,027.7,000.0,038.1,031.0,034.2,0000.0,0035.48,0008.08,0005.09
2024-06-14 08:52:00,SystemResetWarning,0834.1,5.00,000.00,029.5,028.0,000.0,038.0,031.1,034.2,0000.0,0033.66,0008.08,0005.10
2024-06-14 08:53:00,SystemResetWarning,0834.1,5.00,000.00,029.5,028.3,000.0,038.0,031.2,034.1,0000.0,0032.49,0008.06,0005.12
2024-06-14 08:54:00,SystemResetWarning,0834.0,4.99,000.00,029.6,028.5,000.0,038.0,031.3,034.0,0000.0,0032.90,0008.08,0005.13
2024-06-14 08:55:00,SystemResetWarning,0834.0,5.00,000.00,029.6,028.7,000.0,038.0,031.4,033.9,0000.0,0031.50,0008.08,0005.14
2024-06-14 08:56:00,SystemResetWarning,0834.0,5.00,000.00,029.7,028.9,000.0,038.0,031.4,033.9,0000.0,0030.66,0008.10,0005.16
2024-06-14 08:57:00,SystemResetWarning,0834.0,5.00,000.00,029.7,029.1,000.0,038.0,031.5,033.8,0000.0,0029.89,0008.10,0005.17
2024-06-14 08:58:00,SystemResetWarning,0834.0,5.00,000.00,029.8,029.2,000.0,038.1,031.6,033.7,0000.0,0030.17,0008.13,0005.18
2024-06-14 08:59:00,SystemResetWarning,0834.0,5.01,000.00,029.9,029.3,000.0,038.1,031.7,033.6,0000.0,0031.43,0008.04,0005.18
